Volver al catálogo

STARLINK-36397

ActivoComunicacionesSSO
NORAD 67538·PAYLOAD·🇺🇸 United States

Lanzado Jan 22, 2026 desde Vandenberg Space Force Base

Loading…

Próximos Pases (próximas 24 horas)

TLE

ActualizadoSource: CelesTrak SupGP

Época: Sep 14, 2026, 23:14 UTC

1 67538C 26014G   26257.96854167  .00047536  00000+0  14759-2 0  2579
2 67538  97.2848 143.4326 0001754  91.4985 213.2422 15.33408220    10

Sigue STARLINK-36397 en tiempo real con AllMySat

Download on the App Store